Location: Emblem
(62.4273°N, 6.4710°E)
Time: 23:16:52
(UTC+01:00)

Transit 2A Rocket - Pass Details

Date: 09 October 2024
Orbit: 584 x 906 km, 66.7° (Epoch: 05 November)

Event Time Altitude Azimuth Distance (km) Brightness Sun altitude
Rises 02:33:27 0° 304° (NW) 3,507 8.6 -32.4°
Reaches altitude 10° 02:36:02 10° 303° (WNW) 2,538 7.8 -32.3°
Enters shadow 02:36:59 15° 302° (WNW) 2,188 7.4 -32.3°
